TimeEDT,TemperatureF,Dew PointF,Humidity,Sea Level PressureIn,VisibilityMPH,Wind Direction,Wind SpeedMPH,Gust SpeedMPH,PrecipitationIn,Events,Conditions,WindDirDegrees,DateUTC
12:56 AM,39.9,36.0,86,30.00,10.0,Calm,Calm,-,N/A,,Clear,0,2013-05-17 04:56:00
1:56 AM,37.0,35.1,93,30.02,10.0,Calm,Calm,-,N/A,,Clear,0,2013-05-17 05:56:00
2:56 AM,36.0,34.0,93,30.03,10.0,Calm,Calm,-,N/A,,Clear,0,2013-05-17 06:56:00
3:56 AM,34.0,33.1,96,30.04,10.0,Calm,Calm,-,N/A,,Clear,0,2013-05-17 07:56:00
4:56 AM,35.1,32.0,89,30.07,10.0,Calm,Calm,-,N/A,,Partly Cloudy,0,2013-05-17 08:56:00
5:56 AM,36.0,35.1,97,30.10,10.0,Calm,Calm,-,N/A,,Overcast,0,2013-05-17 09:56:00
6:56 AM,44.6,41.0,87,30.12,10.0,Calm,Calm,-,N/A,,Clear,0,2013-05-17 10:56:00
7:56 AM,50.0,42.1,74,30.14,10.0,Variable,3.5,-,N/A,,Scattered Clouds,0,2013-05-17 11:56:00
8:56 AM,54.0,42.1,64,30.16,10.0,Calm,Calm,-,N/A,,Clear,0,2013-05-17 12:56:00
9:56 AM,57.0,44.1,62,30.16,10.0,Variable,3.5,-,N/A,,Clear,0,2013-05-17 13:56:00
10:56 AM,60.1,46.0,60,30.17,10.0,WNW,5.8,-,N/A,,Partly Cloudy,300,2013-05-17 14:56:00
11:56 AM,62.1,46.0,56,30.17,10.0,West,10.4,-,N/A,,Scattered Clouds,280,2013-05-17 15:56:00
12:56 PM,62.1,45.0,53,30.17,10.0,SW,8.1,-,N/A,,Partly Cloudy,220,2013-05-17 16:56:00
1:56 PM,63.0,45.0,52,30.17,10.0,WSW,10.4,-,N/A,,Mostly Cloudy,240,2013-05-17 17:56:00
2:56 PM,60.1,43.0,53,30.19,10.0,WSW,15.0,21.9,N/A,,Clear,250,2013-05-17 18:56:00
3:56 PM,59.0,43.0,55,30.19,10.0,WSW,15.0,-,N/A,,Clear,250,2013-05-17 19:56:00
4:56 PM,61.0,44.1,54,30.18,10.0,SW,9.2,-,N/A,,Clear,220,2013-05-17 20:56:00
5:56 PM,60.1,43.0,53,30.19,10.0,West,9.2,-,N/A,,Clear,260,2013-05-17 21:56:00
6:56 PM,57.9,43.0,58,30.19,10.0,WSW,5.8,-,N/A,,Clear,250,2013-05-17 22:56:00
7:56 PM,53.1,44.1,71,30.19,10.0,Calm,Calm,-,N/A,,Clear,0,2013-05-17 23:56:00
8:56 PM,48.9,41.0,74,30.20,10.0,Calm,Calm,-,N/A,,Clear,0,2013-05-18 00:56:00
9:56 PM,45.0,41.0,86,30.23,10.0,Calm,Calm,-,N/A,,Clear,0,2013-05-18 01:56:00
10:56 PM,43.0,39.9,89,30.23,10.0,Calm,Calm,-,N/A,,Clear,0,2013-05-18 02:56:00
11:56 PM,39.9,37.0,89,30.24,10.0,Calm,Calm,-,N/A,,Clear,0,2013-05-18 03:56:00